Location: Recife
(8.0585°S, 34.8848°W)
Time: 21:19:20
(UTC-03:00)

S-56A Canister/Altair - Pass Details

Date: 17 April 2026
Orbit: 633 x 2484 km, 38.9° (Epoch: 16 May)

Event Time Altitude Azimuth Distance (km) Brightness Sun altitude
Rises 22:36:22 0° 213° (SSW) 2,983 - -79.1°
Reaches altitude 10° 22:38:44 10° 201° (SSW) 2,156 - -79.7°
Maximum altitude 22:43:05 31° 138° (SE) 1,388 - -80.7°
Drops below altitude 10° 22:48:42 10° 77° (ENE) 2,819 - -82.0°
Sets 22:52:14 0° 67° (ENE) 4,077 - -82.9°
